SCP
0 0 0 0 0 0 0 0 0 0 0 0 0 0 0 0 0 0 0 0 0 0 0 0 0 0 0 0 0 0 0 0 0 0 0 0 0 0 0 0 0 0 0 0
0 0 0 0 0 0 0 0 0 0 0 0 0 0 0 0 0 0 0 0 0 0 0 0 0 0 0 0 0 0 0 0 0 0 0 0 0 0 0 0 0 0 0 0
0 0 0 0 0 0 0 0 0 0 0 0 0 0 0 0 0 0 0 0 0 0 0 0 0 0 0 0 0 0 0 0 0 0 0 0 0 0 0 0 0 0 0 0
0 0 0 0 0 0 0 0 0 0 0 0 0 0 0 0 0 0 0 0 0 0 0 0 0 0 0 0 0 0 0 0 0 0 0 0 0 0 0 0 0 0 0 0
0 0 0 0 0 0 0 0 0 0 0 0 0 0 0 0 0 0 0 0 0 0 0 0 0 0 0 0 0 0 0 0 0 0 0 0 0 0 0 0 0 0 0 0
0 0 0 0 0 0 0 0 0 0 0 0 0 0 0 0 0 0 0 0 0 0 0 0 0 0 0 0 0 0 0 0 0 0 0 0 0 0 0 0 0 0 0 0
0 0 0 0 0 0 0 0 0 0 0 0 0 0 0 0 0 0 0 0 0 0 0 0 0 0 0 0 0 0 0 0 0 0 0 0 0 0 0 0 0 0 0 0
0 0 0 0 0 0 0 0 0 0 0 0 0 0 0 0 0 0 0 0 0 0 0 0 0 0 0 0 0 0 0 0 0 -0 0 0 0 0 0 0 0 0 0 0
0 0 0 0 0 0 0 0 0 0 0 0 0 0 0 0 0 0 0 0 0 0 0 0 0 0 0 0 0 0 0 0 0 0 0 0 0 0 0 0 0 0 0 0
0 0 0 0 0 0 0 0 0 0 0 0 0 0 0 0 0 0 0 0 0 0 0 0 0 -0 -0 0 0 0 0 0 0 0 0 0 0 0 0 0 0 0 0 0
0 0 0 0 0 0 0 0 0 0 0 0 0 0 0 0 0 0 0 0 0 0 0 -0 -0 -0 -0 0 0 0 0 0 0 0 0 0 0 0 0 0 0 0 0 -0
0 0 0 0 0 0 0 0 0 0 -0 -0 -0 -0 -0 -0 0 0 0 0 0 0 -0 -0 -0 -0 0 0 -0 0 0 0 0 0 0 0 0 0 0 0 -0 0 0 0
0 0 0 0 0 0 0 0 0 0 0 -0 -0 -0 0 0 0 0 0 0 -0 -0 -0 -0 -0 -0 0 0 -0 0 0 0 0 0 0 0 0 0 0 0 0 0 -0 0
0 -0 0 0 0 0 0 0 0 0 -0 -0 -0 -0 0 0 0 0 -0 -0 0 0 -0 -0 -0 -0 -0 0 -0 0 0 0 0 0 0 0 0 0 0 0 0 0 -0 0
0 0 0 0 0 0 0 0 0 0 0 0 -0 -0 0 0 0 0 0 0 0 0 -0 -0 -0 -0 -0 -0 -0 0 0 0 0 0 0 0 0 0 0 0 0 0 0 -0
0 0 0 0 0 0 0 0 0 0 0 0 -0 0 0 0 0 0 -0 0 -0 -0 -0 -0 -0 -0 -0 -0 -0 0 0 0 0 0 0 0 0 0 0 0 0 0 0 0
-0 -0 0 0 0 0 0 0 0 0 0 0 -0 0 0 0 0 0 -0 -0 -0 -0 -0 -0 -0 -0 -0 -0 -0 0 0 0 0 0 0 0 -0 -0 -0 0 0 -0 -0 -0
0 0 0 0 0 0 0 0 0 0 0 0 -0 -0 -0 0 0 0 -0 -0 -0 -0 -0 -0 -0 -0 -0 -0 0 0 0 0 0 0 0 0 -0 -0 -0 0 -0 -0 -0 -0
-0 -0 -0 0 0 0 0 0 0 0 0 0 -0 -0 -0 0 0 0 -0 -0 -0 -0 -0 -0 -0 -0 -0 -0 -0 -0 0 0 0 0 0 0 -0 -0 -0 -0 -0 -0 -0 -0
-0 0 0 0 0 0 0 0 0 0 0 0 -0 -0 -0 -0 -0 -0 0 0 -0 -0 -0 -0 -0 -0 -0 -0 -0 -0 -0 0 0 0 0 0 0 -0 -0 -0 -0 -0 -0 -0
0 0 0 0 0 0 0 0 0 0 -0 -0 0 -0 -0 -0 -0 -0 -0 -0 -0 -0 -0 -0 -0 0 0 0 0 -0 -0 0 0 0 0 0 0 0 -0 -0 -0 -0 -0 0
0 0 0 0 0 0 0 0 0 -0 0 0 0 0 -0 -0 -0 -0 -0 0 0 -0 0 0 0 0 0 0 0 0 0 -0 0 -0 -0 0 0 0 0 0 -0 -0 -0 -0
-0 -0 0 0 -0 -0 -0 0 0 -0 0 0 0 0 -0 -0 -0 -0 0 0 -0 -0 -0 -0 0 0 0 0 0 0 0 0 0 0 0 0 0 0 0 0 -0 -0 -0 -0
0 0 -0 0 0 0 0 -0 -0 0 0 0 0 0 0 0 0 0 -0 -0 0 0 -0 -0 -0 -0 -0 -0 -0 0 0 0 0 0 0 -0 0 -0 0 -0 -0 -0 0 0
0 0 -0 -0 -0 -0 -0 -0 -0 -0 -0 0 0 0 0 0 0 0 0 0 0 0 -0 -0 -0 -0 -0 -0 -0 0 0 0 0 -0 -0 0 0 -0 -0 0 0 0 0 0
-0 -0 0 -0 -0 0 -0 -0 -0 -0 -0 -0 0 0 0 0 0 -0 -0 -0 -0 -0 -0 -0 -0 -0 -0 -0 -0 -0 -0 0 0 0 0 0 0 0 0 0 0 0 0 0
-0 -0 -0 0 0 0 0 0 -0 0 0 0 0 0 -0 -0 -0 -0 -0 -0 -0 -0 -0 -0 -0 -0 -0 -0 -0 -0 -0 -0 -0 0 0 0 0 0 0 0 0 0 0 0
Wind_Speed_500mb
17 6 7 14 21 20 20 13 14 7 13 27 25 21 16 11 10 10 7 1 6 10 15 19 22 24 27 30 35 38 42 44 46 47 47 47 47 46 46 46 47 49 52 53
19 13 9 10 11 13 12 11 12 8 11 4 11 6 15 13 7 7 2 9 15 20 26 29 30 33 35 39 40 41 43 48 47 45 44 45 45 45 45 47 48 49 52 52
17 10 7 15 22 24 18 12 15 18 5 19 10 10 9 7 4 2 0 10 18 24 26 29 32 35 41 44 43 44 43 43 43 42 43 42 44 46 47 48 49 53 56 54
10 15 13 13 3 2 16 6 9 6 14 12 14 11 7 11 12 8 18 25 28 30 31 32 35 38 39 40 40 40 41 40 39 41 44 45 46 48 49 48 56 58 61 63
8 13 9 10 13 17 19 18 7 18 15 12 7 13 22 13 15 18 24 27 28 31 35 38 38 40 40 40 38 36 36 37 40 42 44 44 46 47 48 50 52 56 54 56
11 9 10 20 11 3 7 12 9 7 9 11 13 9 13 21 26 27 27 29 34 37 38 37 37 37 36 36 33 32 33 38 39 41 43 46 47 48 51 52 57 52 54 52
10 3 9 11 3 1 9 9 15 15 16 18 15 15 27 31 30 29 31 34 37 36 36 35 36 33 34 32 33 31 34 36 40 41 44 46 49 49 51 57 52 51 54 54
7 6 7 11 11 3 16 21 18 17 18 18 20 24 27 30 32 34 36 37 35 35 34 34 31 32 32 33 28 32 35 41 42 42 46 45 48 47 49 50 49 47 54 54
2 8 21 24 30 22 20 23 20 17 18 20 23 28 33 34 35 34 36 35 33 35 34 29 30 29 30 27 31 36 39 41 39 40 39 42 44 49 55 52 53 52 48 50
14 21 26 32 31 29 27 26 20 18 19 22 25 30 31 32 33 34 32 34 32 33 32 35 29 25 24 28 33 35 37 39 39 38 41 44 46 46 47 62 52 44 47 51
28 27 31 25 27 28 27 24 21 19 19 21 24 29 30 29 30 30 32 32 33 34 34 31 29 27 25 27 32 34 34 37 39 33 36 46 57 48 48 45 44 49 43 39
7 38 16 33 28 25 25 23 21 20 18 18 22 29 31 27 28 30 32 35 36 31 31 32 30 27 27 28 29 30 32 34 37 32 36 50 58 56 39 31 32 29 30 32
20 23 35 43 32 26 27 24 21 21 21 19 18 25 28 31 29 30 33 33 32 32 33 31 30 29 32 31 28 27 29 28 32 29 35 47 58 52 46 41 34 34 46 39
40 51 47 40 35 29 28 25 23 21 19 19 20 20 28 36 39 36 37 34 28 32 34 34 34 35 35 33 29 27 22 19 26 26 32 34 45 48 49 44 39 49 41 38
17 17 35 40 35 28 21 16 17 20 20 20 21 25 33 34 37 39 39 37 36 41 41 41 42 42 40 37 32 25 20 18 21 22 26 27 32 38 37 36 41 37 46 33
31 39 41 35 31 25 19 17 16 17 20 23 21 27 31 31 30 33 36 39 41 45 48 47 48 47 47 43 37 30 23 16 16 20 23 26 28 30 36 38 38 42 47 46
39 34 32 30 27 23 19 17 16 14 16 23 27 28 30 32 32 35 40 40 38 39 46 49 50 43 48 46 41 40 32 27 15 14 17 23 24 25 27 29 34 32 28 37
15 26 23 26 26 22 18 17 16 14 16 20 28 33 33 33 37 37 37 41 41 40 48 50 50 46 45 47 38 44 42 33 29 20 19 20 20 23 24 24 25 28 26 27
30 33 31 28 24 21 17 14 14 15 15 20 28 35 34 31 31 35 32 39 46 48 52 51 50 48 50 49 43 35 50 44 37 31 27 20 20 18 21 24 24 23 24 25
34 33 31 29 24 21 19 15 15 15 17 24 31 34 36 34 29 33 32 33 44 43 44 47 47 48 50 50 48 40 39 49 50 49 39 34 29 25 22 19 22 23 23 22
31 28 26 23 23 22 18 15 15 15 16 27 36 37 35 35 29 28 35 32 43 41 42 43 46 47 48 50 49 45 42 42 41 40 52 49 40 35 31 28 24 22 23 23
26 24 23 22 23 22 18 17 17 16 19 23 33 36 33 36 34 28 34 38 37 40 42 42 45 42 49 49 48 50 48 44 41 41 43 50 55 50 44 38 34 27 24 24
23 24 22 21 20 21 19 18 18 19 22 24 27 35 36 32 39 34 31 40 36 39 39 43 42 43 45 45 48 48 54 51 48 46 46 45 43 52 56 50 44 38 30 26
24 23 21 21 20 18 17 16 17 18 19 21 25 27 31 30 25 35 31 36 37 38 37 47 45 47 46 40 46 49 51 55 55 51 50 48 44 44 49 58 56 48 41 35
26 25 20 16 13 13 13 13 14 14 15 18 21 23 25 26 32 32 35 31 38 36 33 46 51 47 40 40 42 44 48 53 57 55 55 55 52 51 49 52 57 59 57 48
23 20 18 17 16 15 11 10 11 12 11 13 17 20 21 23 25 29 29 36 32 35 33 36 41 41 40 41 42 43 44 48 57 58 58 59 58 58 58 57 56 57 58 59
22 22 19 18 16 13 12 12 12 13 13 13 13 16 20 22 25 27 32 31 32 32 33 33 36 39 39 40 41 42 44 49 55 57 58 61 64 62 61 61 59 58 59 59
Wind_Direction_500mb
156 204 172 177 179 185 210 225 227 161 213 170 177 176 171 175 177 175 169 134 359 344 340 333 322 314 311 306 309 307 303 300 298 296 294 294 291 287 287 286 285 284 284 283
158 210 229 214 202 203 212 195 239 202 222 215 107 198 172 185 205 234 294 343 336 332 330 324 318 314 311 313 310 308 304 303 302 300 294 290 290 291 291 290 289 287 286 283
162 176 193 236 227 218 221 212 243 238 24 116 154 180 162 170 196 131 225 321 318 315 314 312 312 310 309 307 307 304 301 300 300 299 298 298 297 298 297 294 291 290 289 285
127 168 216 53 163 230 201 180 186 112 97 96 108 129 142 88 76 8 332 323 320 316 313 310 307 308 306 308 308 307 307 307 306 305 305 306 306 303 297 293 292 296 296 293
169 197 84 141 116 147 155 132 100 122 117 102 112 174 129 88 11 339 325 318 314 312 310 310 312 311 312 313 313 313 310 310 313 314 312 308 305 302 301 297 299 297 293 294
157 182 196 112 118 22 255 121 119 111 76 28 331 259 111 346 341 331 325 318 315 312 312 312 311 313 314 313 313 309 311 316 316 315 310 306 304 303 304 295 301 300 297 294
145 155 107 113 103 279 215 105 102 81 52 32 18 0 329 331 329 326 323 320 317 316 315 311 313 314 310 309 306 316 317 314 313 312 310 307 306 303 305 304 303 290 296 302
184 174 162 153 169 296 106 104 91 68 40 17 355 341 336 332 329 327 324 324 321 318 314 316 316 311 307 309 320 314 314 319 320 319 320 314 311 306 309 311 307 296 305 307
156 92 97 85 90 101 107 100 75 61 35 19 3 349 339 333 331 328 326 323 322 320 318 318 311 313 316 323 312 317 322 327 320 316 319 320 318 317 320 319 309 302 300 302
142 118 105 98 96 97 99 93 81 64 48 33 15 359 344 335 333 330 329 327 326 325 322 322 332 328 318 311 314 316 327 332 328 317 320 326 329 322 313 324 318 308 307 307
94 108 106 111 108 109 102 92 79 65 55 41 23 7 350 339 337 334 331 334 331 330 332 334 329 328 322 315 316 330 334 336 334 325 322 329 340 341 330 328 316 324 315 312
184 164 142 136 128 120 107 92 84 66 56 38 24 10 2 354 346 343 340 341 346 344 344 340 339 337 329 324 327 330 330 338 339 330 330 342 350 349 356 346 343 335 324 322
111 135 129 134 130 124 108 97 85 69 54 39 23 11 6 6 360 354 353 350 353 354 348 351 352 346 340 335 334 328 328 334 335 332 330 351 357 0 2 10 8 15 11 358
117 120 124 134 134 127 111 96 80 68 56 42 28 14 12 15 13 8 4 5 8 5 9 5 3 358 356 350 342 337 333 331 334 325 330 350 354 2 11 12 18 20 9 43
136 138 136 132 131 127 115 93 76 62 47 36 27 21 19 19 15 11 12 15 22 19 18 15 10 8 3 360 357 352 347 335 337 329 329 340 346 5 8 19 23 15 34 47
122 128 133 133 130 122 107 87 80 64 44 30 24 22 23 22 20 18 16 14 17 14 18 15 14 9 7 5 7 5 3 345 335 336 333 336 340 347 1 13 18 26 19 26
135 140 141 138 134 123 104 86 76 64 45 29 23 20 20 21 21 22 21 20 21 17 19 16 13 10 9 9 11 13 12 9 351 343 338 340 338 341 344 349 353 9 12 8
151 139 139 140 138 130 111 83 66 58 48 31 22 24 24 19 19 19 17 16 22 23 22 19 18 18 14 14 25 8 16 18 15 2 345 338 340 342 342 343 343 350 356 357
125 124 123 122 125 121 110 85 65 65 52 31 28 28 22 18 16 16 18 15 19 17 16 17 20 20 20 26 34 16 19 27 22 20 14 357 343 338 338 339 340 343 344 353
122 120 116 113 111 110 103 83 80 73 56 38 29 24 20 20 19 19 23 18 18 15 14 15 17 22 21 27 29 21 19 15 21 26 20 18 10 353 345 335 333 332 333 341
129 125 119 114 109 106 95 84 81 76 57 36 27 25 25 23 29 25 25 21 14 17 18 17 18 22 25 28 26 25 21 21 20 18 18 21 18 13 3 354 340 330 325 324
130 131 123 116 115 108 96 83 80 74 54 38 26 27 31 29 35 35 17 22 15 22 18 19 19 24 30 26 27 27 24 22 20 18 17 14 21 17 13 5 358 347 330 323
125 129 126 122 122 118 102 81 70 63 53 41 31 27 33 25 27 30 22 20 23 29 22 25 25 27 32 19 25 24 26 26 22 19 18 12 11 13 16 12 6 358 350 337
119 126 124 127 124 113 98 79 68 61 52 44 37 33 30 33 28 31 30 19 26 33 19 24 30 33 30 21 19 22 22 23 25 21 17 15 11 9 7 12 13 9 1 350
118 117 118 119 117 116 90 78 51 42 42 41 36 32 32 26 30 26 28 32 21 31 24 10 19 24 23 20 19 18 19 18 22 23 22 17 12 9 6 6 8 11 9 2
111 111 107 104 106 108 93 66 55 50 44 35 32 31 30 29 26 23 25 35 26 28 24 20 17 22 18 17 17 16 15 14 19 21 19 20 18 14 10 9 7 6 5 5
104 102 101 97 93 92 84 75 68 55 48 38 29 33 25 31 22 27 19 28 25 25 20 21 13 16 20 19 16 16 13 12 17 16 16 15 16 15 11 7 5 5 2 359
Wind_Speed_850mb
17 6 7 14 21 20 20 13 14 7 13 27 25 21 16 11 10 10 7 1 6 10 15 19 22 24 27 30 35 38 42 44 46 47 47 47 47 46 46 46 47 49 52 53
19 13 9 10 11 13 12 11 12 8 11 4 11 6 15 13 7 7 2 9 15 20 26 29 30 33 35 39 40 41 43 48 47 45 44 45 45 45 45 47 48 49 52 52
17 10 7 15 22 24 18 12 15 18 5 19 10 10 9 7 4 2 0 10 18 24 26 29 32 35 41 44 43 44 43 43 43 42 43 42 44 46 47 48 49 53 56 54
10 15 13 13 3 2 16 6 9 6 14 12 14 11 7 11 12 8 18 25 28 30 31 32 35 38 39 40 40 40 41 40 39 41 44 45 46 48 49 48 56 58 61 63
8 13 9 10 13 17 19 18 7 18 15 12 7 13 22 13 15 18 24 27 28 31 35 38 38 40 40 40 38 36 36 37 40 42 44 44 46 47 48 50 52 56 54 56
11 9 10 20 11 3 7 12 9 7 9 11 13 9 13 21 26 27 27 29 34 37 38 37 37 37 36 36 33 32 33 38 39 41 43 46 47 48 51 52 57 52 54 52
10 3 9 11 3 1 9 9 15 15 16 18 15 15 27 31 30 29 31 34 37 36 36 35 36 33 34 32 33 31 34 36 40 41 44 46 49 49 51 57 52 51 54 54
7 6 7 11 11 3 16 21 18 17 18 18 20 24 27 30 32 34 36 37 35 35 34 34 31 32 32 33 28 32 35 41 42 42 46 45 48 47 49 50 49 47 54 54
2 8 21 24 30 22 20 23 20 17 18 20 23 28 33 34 35 34 36 35 33 35 34 29 30 29 30 27 31 36 39 41 39 40 39 42 44 49 55 52 53 52 48 50
14 21 26 32 31 29 27 26 20 18 19 22 25 30 31 32 33 34 32 34 32 33 32 35 29 25 24 28 33 35 37 39 39 38 41 44 46 46 47 62 52 44 47 51
28 27 31 25 27 28 27 24 21 19 19 21 24 29 30 29 30 30 32 32 33 34 34 31 29 27 25 27 32 34 34 37 39 33 36 46 57 48 48 45 44 49 43 39
7 38 16 33 28 25 25 23 21 20 18 18 22 29 31 27 28 30 32 35 36 31 31 32 30 27 27 28 29 30 32 34 37 32 36 50 58 56 39 31 32 29 30 32
20 23 35 43 32 26 27 24 21 21 21 19 18 25 28 31 29 30 33 33 32 32 33 31 30 29 32 31 28 27 29 28 32 29 35 47 58 52 46 41 34 34 46 39
40 51 47 40 35 29 28 25 23 21 19 19 20 20 28 36 39 36 37 34 28 32 34 34 34 35 35 33 29 27 22 19 26 26 32 34 45 48 49 44 39 49 41 38
17 17 35 40 35 28 21 16 17 20 20 20 21 25 33 34 37 39 39 37 36 41 41 41 42 42 40 37 32 25 20 18 21 22 26 27 32 38 37 36 41 37 46 33
31 39 41 35 31 25 19 17 16 17 20 23 21 27 31 31 30 33 36 39 41 45 48 47 48 47 47 43 37 30 23 16 16 20 23 26 28 30 36 38 38 42 47 46
39 34 32 30 27 23 19 17 16 14 16 23 27 28 30 32 32 35 40 40 38 39 46 49 50 43 48 46 41 40 32 27 15 14 17 23 24 25 27 29 34 32 28 37
15 26 23 26 26 22 18 17 16 14 16 20 28 33 33 33 37 37 37 41 41 40 48 50 50 46 45 47 38 44 42 33 29 20 19 20 20 23 24 24 25 28 26 27
30 33 31 28 24 21 17 14 14 15 15 20 28 35 34 31 31 35 32 39 46 48 52 51 50 48 50 49 43 35 50 44 37 31 27 20 20 18 21 24 24 23 24 25
34 33 31 29 24 21 19 15 15 15 17 24 31 34 36 34 29 33 32 33 44 43 44 47 47 48 50 50 48 40 39 49 50 49 39 34 29 25 22 19 22 23 23 22
31 28 26 23 23 22 18 15 15 15 16 27 36 37 35 35 29 28 35 32 43 41 42 43 46 47 48 50 49 45 42 42 41 40 52 49 40 35 31 28 24 22 23 23
26 24 23 22 23 22 18 17 17 16 19 23 33 36 33 36 34 28 34 38 37 40 42 42 45 42 49 49 48 50 48 44 41 41 43 50 55 50 44 38 34 27 24 24
23 24 22 21 20 21 19 18 18 19 22 24 27 35 36 32 39 34 31 40 36 39 39 43 42 43 45 45 48 48 54 51 48 46 46 45 43 52 56 50 44 38 30 26
24 23 21 21 20 18 17 16 17 18 19 21 25 27 31 30 25 35 31 36 37 38 37 47 45 47 46 40 46 49 51 55 55 51 50 48 44 44 49 58 56 48 41 35
26 25 20 16 13 13 13 13 14 14 15 18 21 23 25 26 32 32 35 31 38 36 33 46 51 47 40 40 42 44 48 53 57 55 55 55 52 51 49 52 57 59 57 48
23 20 18 17 16 15 11 10 11 12 11 13 17 20 21 23 25 29 29 36 32 35 33 36 41 41 40 41 42 43 44 48 57 58 58 59 58 58 58 57 56 57 58 59
22 22 19 18 16 13 12 12 12 13 13 13 13 16 20 22 25 27 32 31 32 32 33 33 36 39 39 40 41 42 44 49 55 57 58 61 64 62 61 61 59 58 59 59
Wind_Direction_850mb
156 204 172 177 179 185 210 225 227 161 213 170 177 176 171 175 177 175 169 134 359 344 340 333 322 314 311 306 309 307 303 300 298 296 294 294 291 287 287 286 285 284 284 283
158 210 229 214 202 203 212 195 239 202 222 215 107 198 172 185 205 234 294 343 336 332 330 324 318 314 311 313 310 308 304 303 302 300 294 290 290 291 291 290 289 287 286 283
162 176 193 236 227 218 221 212 243 238 24 116 154 180 162 170 196 131 225 321 318 315 314 312 312 310 309 307 307 304 301 300 300 299 298 298 297 298 297 294 291 290 289 285
127 168 216 53 163 230 201 180 186 112 97 96 108 129 142 88 76 8 332 323 320 316 313 310 307 308 306 308 308 307 307 307 306 305 305 306 306 303 297 293 292 296 296 293
169 197 84 141 116 147 155 132 100 122 117 102 112 174 129 88 11 339 325 318 314 312 310 310 312 311 312 313 313 313 310 310 313 314 312 308 305 302 301 297 299 297 293 294
157 182 196 112 118 22 255 121 119 111 76 28 331 259 111 346 341 331 325 318 315 312 312 312 311 313 314 313 313 309 311 316 316 315 310 306 304 303 304 295 301 300 297 294
145 155 107 113 103 279 215 105 102 81 52 32 18 0 329 331 329 326 323 320 317 316 315 311 313 314 310 309 306 316 317 314 313 312 310 307 306 303 305 304 303 290 296 302
184 174 162 153 169 296 106 104 91 68 40 17 355 341 336 332 329 327 324 324 321 318 314 316 316 311 307 309 320 314 314 319 320 319 320 314 311 306 309 311 307 296 305 307
156 92 97 85 90 101 107 100 75 61 35 19 3 349 339 333 331 328 326 323 322 320 318 318 311 313 316 323 312 317 322 327 320 316 319 320 318 317 320 319 309 302 300 302
142 118 105 98 96 97 99 93 81 64 48 33 15 359 344 335 333 330 329 327 326 325 322 322 332 328 318 311 314 316 327 332 328 317 320 326 329 322 313 324 318 308 307 307
94 108 106 111 108 109 102 92 79 65 55 41 23 7 350 339 337 334 331 334 331 330 332 334 329 328 322 315 316 330 334 336 334 325 322 329 340 341 330 328 316 324 315 312
184 164 142 136 128 120 107 92 84 66 56 38 24 10 2 354 346 343 340 341 346 344 344 340 339 337 329 324 327 330 330 338 339 330 330 342 350 349 356 346 343 335 324 322
111 135 129 134 130 124 108 97 85 69 54 39 23 11 6 6 360 354 353 350 353 354 348 351 352 346 340 335 334 328 328 334 335 332 330 351 357 0 2 10 8 15 11 358
117 120 124 134 134 127 111 96 80 68 56 42 28 14 12 15 13 8 4 5 8 5 9 5 3 358 356 350 342 337 333 331 334 325 330 350 354 2 11 12 18 20 9 43
136 138 136 132 131 127 115 93 76 62 47 36 27 21 19 19 15 11 12 15 22 19 18 15 10 8 3 360 357 352 347 335 337 329 329 340 346 5 8 19 23 15 34 47
122 128 133 133 130 122 107 87 80 64 44 30 24 22 23 22 20 18 16 14 17 14 18 15 14 9 7 5 7 5 3 345 335 336 333 336 340 347 1 13 18 26 19 26
135 140 141 138 134 123 104 86 76 64 45 29 23 20 20 21 21 22 21 20 21 17 19 16 13 10 9 9 11 13 12 9 351 343 338 340 338 341 344 349 353 9 12 8
151 139 139 140 138 130 111 83 66 58 48 31 22 24 24 19 19 19 17 16 22 23 22 19 18 18 14 14 25 8 16 18 15 2 345 338 340 342 342 343 343 350 356 357
125 124 123 122 125 121 110 85 65 65 52 31 28 28 22 18 16 16 18 15 19 17 16 17 20 20 20 26 34 16 19 27 22 20 14 357 343 338 338 339 340 343 344 353
122 120 116 113 111 110 103 83 80 73 56 38 29 24 20 20 19 19 23 18 18 15 14 15 17 22 21 27 29 21 19 15 21 26 20 18 10 353 345 335 333 332 333 341
129 125 119 114 109 106 95 84 81 76 57 36 27 25 25 23 29 25 25 21 14 17 18 17 18 22 25 28 26 25 21 21 20 18 18 21 18 13 3 354 340 330 325 324
130 131 123 116 115 108 96 83 80 74 54 38 26 27 31 29 35 35 17 22 15 22 18 19 19 24 30 26 27 27 24 22 20 18 17 14 21 17 13 5 358 347 330 323
125 129 126 122 122 118 102 81 70 63 53 41 31 27 33 25 27 30 22 20 23 29 22 25 25 27 32 19 25 24 26 26 22 19 18 12 11 13 16 12 6 358 350 337
119 126 124 127 124 113 98 79 68 61 52 44 37 33 30 33 28 31 30 19 26 33 19 24 30 33 30 21 19 22 22 23 25 21 17 15 11 9 7 12 13 9 1 350
118 117 118 119 117 116 90 78 51 42 42 41 36 32 32 26 30 26 28 32 21 31 24 10 19 24 23 20 19 18 19 18 22 23 22 17 12 9 6 6 8 11 9 2
111 111 107 104 106 108 93 66 55 50 44 35 32 31 30 29 26 23 25 35 26 28 24 20 17 22 18 17 17 16 15 14 19 21 19 20 18 14 10 9 7 6 5 5
104 102 101 97 93 92 84 75 68 55 48 38 29 33 25 31 22 27 19 28 25 25 20 21 13 16 20 19 16 16 13 12 17 16 16 15 16 15 11 7 5 5 2 359